Medford, OR

6:47 AM PDT on April 20, 2018 (GMT -0700)
Rogue Valley International-Medford

Weather History for KMFR - November, 2012

Change the Weather History Date:

Monday, November 26, 2012

  Actual Average Record
Temperature  
Mean Temperature 46 °F 42 °F  
Max Temperature 55 °F 49 °F 64 °F (2017)
Min Temperature 36 °F 35 °F 18 °F (1952)
Degree Days  
Heating Degree Days 19 23  
Month to date heating degree days 453 514  
Since 1 July heating degree days 695 874  
Cooling Degree Days 0 0  
Month to date cooling degree days 0 0  
Year to date cooling degree days 960 829  
Moisture  
Dew Point 39 °F    
Average Humidity 78    
Maximum Humidity 100    
Minimum Humidity 55    
Precipitation  
Precipitation 0.00 in 0.11 in 1.10 in (1962)
Month to date precipitation 2.38 2.54  
Year to date precipitation 18.46 14.38  
Snow  
Snow 0.00 in 0.00 in - ()
Month to date snowfall 0.0 0.1  
Since 1 July snowfall 0.0 0.1  
Snow Depth 0.00 in    
Sea Level Pressure  
Sea Level Pressure 30.05 in    
Wind  
Wind Speed 1 mph (NNE)    
Max Wind Speed 6 mph    
Max Gust Speed 7 mph    
Visibility 5 miles    
Events Fog    
T = Trace of Precipitation, MM = Missing Value Source: NWS Daily Summary

Daily Weather History Graph

Daily Weather History Graph

Search for Another Location

Airport or City:

Astronomy

Nov. 26, 2012 Rise Set
Actual Time 7:16 AM PST 4:41 PM PST
Civil Twilight 6:45 AM PST 5:12 PM PST
Nautical Twilight 6:10 AM PST 5:47 PM PST
Astronomical Twilight 5:36 AM PST 6:20 PM PST
Moon 3:38 PM PST (11/26) 5:30 AM PST (11/26)
Length of Visible Light 10h 27m
Length of Day
9h 25m
Waxing Gibbous, 97% of the Moon is Illuminated
Nov 26
Waxing Gibbous
Nov 28
Full
Dec 6
Last Quarter
Dec 13
New
Dec 19
First Quarter

Hourly Weather History & Observations

Time (PST) Temp. Windchill Dew Point Humidity Pressure Visibility Wind Dir Wind Speed Gust Speed Precip Events Conditions
12:53 AM 41.0 °F 39.0 °F 39.0 °F 93% 30.07 in 4.0 mi NNE 3.5 mph - N/A   Mostly Cloudy
12:55 AM 41.0 °F 38.0 °F 39.2 °F 93% 30.06 in 1.2 mi NNE 4.6 mph - N/A   Mostly Cloudy
12:57 AM 41.0 °F 38.0 °F 39.2 °F 93% 30.06 in 0.8 mi NNE 4.6 mph - N/A   Mostly Cloudy
1:01 AM 39.2 °F 37.0 °F 39.2 °F 100% 30.06 in 0.2 mi NNE 3.5 mph - N/A Fog Fog
1:27 AM 39.2 °F 35.9 °F 39.2 °F 100% 30.06 in 0.8 mi East 4.6 mph - N/A   Mist
1:53 AM 41.0 °F - 41.0 °F 100% 30.07 in 0.5 mi Calm Calm - N/A Fog Fog
2:11 AM 42.8 °F - 41.0 °F 93% 30.07 in 1.2 mi Calm Calm - N/A   Overcast
2:18 AM 42.8 °F - 41.0 °F 93% 30.06 in 3.0 mi Calm Calm - N/A   Overcast
2:33 AM 42.8 °F - 41.0 °F 93% 30.05 in 1.8 mi Calm Calm - N/A   Overcast
2:53 AM 43.0 °F - 42.1 °F 97% 30.06 in 0.8 mi Calm Calm - N/A   Mist
3:00 AM 42.8 °F - 42.8 °F 100% 30.05 in 1.8 mi Calm Calm - N/A   Overcast
3:04 AM 42.8 °F - 42.8 °F 100% 30.05 in 3.0 mi Calm Calm - N/A   Overcast
3:09 AM 42.8 °F - 42.8 °F 100% 30.04 in 1.5 mi Calm Calm - N/A   Overcast
3:20 AM 42.8 °F - 41.0 °F 93% 30.04 in 0.5 mi Calm Calm - N/A Fog Fog
3:33 AM 42.8 °F 41.1 °F 39.2 °F 87% 30.04 in 2.0 mi NNW 3.5 mph - N/A   Overcast
3:43 AM 42.8 °F 41.1 °F 41.0 °F 93% 30.04 in 1.5 mi NNW 3.5 mph - N/A   Overcast
3:53 AM 41.0 °F 37.1 °F 41.0 °F 100% 30.04 in 2.0 mi North 5.8 mph - N/A   Overcast
4:02 AM 41.0 °F 37.1 °F 39.2 °F 93% 30.03 in 10.0 mi North 5.8 mph - N/A   Overcast
4:53 AM 41.0 °F 39.0 °F 39.0 °F 93% 30.05 in 10.0 mi NNE 3.5 mph - N/A   Overcast
5:14 AM 39.2 °F 37.0 °F 39.2 °F 100% 30.05 in 10.0 mi NNE 3.5 mph - N/A   Overcast
5:53 AM 41.0 °F - 39.0 °F 93% 30.06 in 10.0 mi Calm Calm - N/A   Overcast
6:04 AM 41.0 °F - 39.2 °F 93% 30.05 in 10.0 mi Calm Calm - N/A   Overcast
6:53 AM 39.0 °F 35.7 °F 37.9 °F 96% 30.06 in 5.0 mi North 4.6 mph - N/A   Overcast
7:02 AM 39.2 °F 35.9 °F 37.4 °F 93% 30.05 in 10.0 mi NNE 4.6 mph - N/A   Overcast
7:22 AM 39.2 °F 35.9 °F 37.4 °F 93% 30.05 in 5.0 mi NNE 4.6 mph - N/A   Overcast
7:27 AM 39.2 °F 35.9 °F 37.4 °F 93% 30.05 in 1.5 mi NNE 4.6 mph - N/A   Overcast
7:34 AM 39.2 °F 35.9 °F 37.4 °F 93% 30.05 in 0.2 mi NNE 4.6 mph - N/A Fog Fog
7:47 AM 39.2 °F 35.9 °F 37.4 °F 93% 30.05 in 1.0 mi NNE 4.6 mph - N/A   Overcast
7:50 AM 39.2 °F 35.9 °F 37.4 °F 93% 30.05 in 3.0 mi NNE 4.6 mph - N/A   Overcast
7:53 AM 39.0 °F 36.8 °F 37.9 °F 96% 30.06 in 7.0 mi NNE 3.5 mph - N/A   Overcast
8:04 AM 39.2 °F - 37.4 °F 93% 30.05 in 1.0 mi Calm Calm - N/A   Overcast
8:53 AM 39.9 °F 37.8 °F 37.0 °F 89% 30.08 in 3.0 mi NNE 3.5 mph - N/A   Overcast
9:12 AM 39.2 °F - 35.6 °F 87% 30.06 in 3.0 mi Calm Calm - N/A   Overcast
9:53 AM 41.0 °F - 37.9 °F 89% 30.08 in 3.0 mi Calm Calm - N/A   Mostly Cloudy
10:53 AM 46.0 °F - 37.9 °F 73% 30.07 in 7.0 mi Calm Calm - N/A   Mostly Cloudy
11:16 AM 46.4 °F - 39.2 °F 76% 30.05 in 10.0 mi Calm Calm - N/A   Scattered Clouds
11:53 AM 48.0 °F - 39.9 °F 74% 30.05 in 10.0 mi Calm Calm - N/A   Clear
12:53 PM 51.1 °F - 41.0 °F 68% 30.02 in 10.0 mi Calm Calm - N/A   Clear
1:53 PM 53.1 °F - 39.9 °F 61% 30.00 in 10.0 mi Calm Calm - N/A   Clear
2:53 PM 53.1 °F - 41.0 °F 64% 29.99 in 10.0 mi Calm Calm - N/A   Clear
3:53 PM 55.0 °F - 39.9 °F 57% 29.98 in 10.0 mi Calm Calm - N/A   Clear
4:53 PM 52.0 °F - 39.9 °F 63% 29.99 in 10.0 mi Calm Calm - N/A   Clear
5:53 PM 48.0 °F - 42.1 °F 80% 30.01 in 10.0 mi SSW 3.5 mph - N/A   Clear
6:53 PM 46.0 °F - 42.1 °F 86% 30.02 in 10.0 mi Calm Calm - N/A   Clear
7:53 PM 43.0 °F - 37.9 °F 82% 30.04 in 10.0 mi Calm Calm - N/A   Clear
8:53 PM 42.1 °F - 39.0 °F 89% 30.05 in 8.0 mi Calm Calm - N/A   Clear
9:53 PM 39.0 °F 36.8 °F 37.0 °F 93% 30.07 in 8.0 mi SSE 3.5 mph - N/A   Clear
10:53 PM 39.0 °F - 36.0 °F 89% 30.06 in 6.0 mi Calm Calm - N/A   Clear
11:53 PM 36.0 °F - 35.1 °F 97% 30.07 in 5.0 mi Calm Calm - N/A   Clear